Weather reports worldwide

Advertisment
Berlin-Dahlem (FU), Germany (10381): temperature & dewpoint: 06.11.2019 06:00:00 - 12.11.2019 06:00:00 (CET)Berlin-Dahlem (FU), Germany (10381): temperature 5cm & temperature -5cm: 06.11.2019 06:00:00 - 12.11.2019 06:00:00 (CET)Berlin-Dahlem (FU), Germany (10381): temperature -20cm & temperature -100cm: 06.11.2019 06:00:00 - 12.11.2019 06:00:00 (CET)Berlin-Dahlem (FU), Germany (10381): wind speed & gusts: 06.11.2019 06:00:00 - 12.11.2019 06:00:00 (CET)Berlin-Dahlem (FU), Germany (10381): wind direction: 06.11.2019 06:00:00 - 12.11.2019 06:00:00 (CET)Berlin-Dahlem (FU), Germany (10381): reduced air pressure: 06.11.2019 06:00:00 - 12.11.2019 06:00:00 (CET)Berlin-Dahlem (FU), Germany (10381): visibility: 06.11.2019 06:00:00 - 12.11.2019 06:00:00 (CET)Berlin-Dahlem (FU), Germany (10381): sunshine duration: 06.11.2019 06:00:00 - 12.11.2019 06:00:00 (CET)Berlin-Dahlem (FU), Germany (10381): precipitation: 06.11.2019 06:00:00 - 12.11.2019 06:00:00 (CET)
Date & Time tt [°C] td [°C] tt 5cm [°C] tt -5cm [°C] tt -20cm [°C] tt -100cm [°C] ff [km/h] ff [kn] fx [km/h] fx [kn] dd ppp [hPa] vv [km] sd [min] rr [mm]
12.11.2019 06:00:00 2,4 0,6 1,7 2,3 4,2 10,5 14 8 25 14 S 1006,1 22 0 0,0
12.11.2019 05:00:00 2,1 0,4 1,4 2,3 4,2 10,5 14 7 22 12 SSW 1006,1 22 0 0,0
12.11.2019 04:00:00 1,7 0,2 1,0 1,9 4,2 10,5 11 6 25 14 S 1005,9 22 0 0,0
12.11.2019 03:00:00 1,2 -0,1 0,2 1,4 4,2 10,7 14 8 29 16 S 1006,3 17 0 0,0
12.11.2019 02:00:00 0,7 0,0 -0,6 1,0 4,4 10,7 18 10 29 16 S 1006,6 20 0 0,0
12.11.2019 01:00:00 0,4 0,0 -1,8 0,9 4,7 10,7 14 8 25 14 S 1006,7 20 0 0,0
12.11.2019 00:00:00 0,8 0,2 -0,8 1,2 4,7 10,7 13 7 25 14 S 1006,8 20 0 0,0
11.11.2019 23:00:00 1,1 0,2 -1,0 1,4 5,0 10,7 17 9 29 16 S 1007,3 20 0 0,0
11.11.2019 22:00:00 1,4 0,2 -0,3 1,5 5,2 10,7 19 11 32 18 S 1007,7 25 0 0,0
11.11.2019 21:00:00 1,6 0,0 -0,5 1,8 5,5 10,7 16 9 32 18 SSE 1008,0 25 0 0,0
11.11.2019 20:00:00 2,6 0,0 0,5 2,2 5,7 10,7 16 9 36 19 S 1008,5 30 0 0,0
11.11.2019 19:00:00 3,8 0,1 1,7 2,7 6,0 10,7 17 9 36 19 S 1008,6 30 0 0,0
11.11.2019 18:00:00 4,3 0,7 1,0 3,0 6,3 10,6 19 10 32 18 SSE 1008,7 25 0 0,0
11.11.2019 17:00:00 3,9 1,6 0,0 3,6 6,5 10,6 14 8 22 12 SE 1009,1 25 12 0,0
11.11.2019 16:00:00 5,4 1,1 2,4 4,8 6,7 10,7 12 6 25 14 SE 1009,7 20 60 0,0
11.11.2019 15:00:00 6,6 0,8 4,8 5,8 6,7 10,7 13 7 22 12 SSE 1010,2 20 60 0,0
11.11.2019 14:00:00 7,0 2,0 5,9 6,7 6,5 10,7 8 4 25 14 SSE 1011,0 18 60 0,0
11.11.2019 13:00:00 5,5 3,2 6,0 7,1 6,2 10,7 9 5 22 12 SSE 1011,6 12 42 0,0
11.11.2019 12:00:00 2,7 2,1 3,7 6,2 6,0 10,7 11 6 29 16 S 1012,5 9 6 0,0
11.11.2019 11:00:00 1,1 1,0 2,5 5,2 5,9 10,7 17 9 29 16 SSW 1013,5 6 0 0,0
11.11.2019 10:00:00 1,2 1,1 2,4 4,7 5,9 10,7 14 7 22 12 S 1013,9 4,5 0 0,0
11.11.2019 09:00:00 0,7 0,6 1,5 4,1 5,9 10,7 12 6 18 10 S 1014,1 2,6 0 0,0
11.11.2019 08:00:00 0,4 0,3 1,0 3,8 6,0 10,7 11 6 18 10 S 1014,8 0,9 0 0,0
11.11.2019 07:00:00 0,6 0,5 1,2 3,9 6,0 10,7 6 3 14 8 S 1014,8 0,8 0 0,0
11.11.2019 06:00:00 0,9 0,8 1,4 4,1 6,2 10,7 11 6 14 8 SSE 1014,7 0,5 0 0,0
11.11.2019 05:00:00 1,0 0,9 1,5 4,2 6,2 10,7 7 4 11 6 SE 1015,2 0,3 0 0,0
11.11.2019 04:00:00 1,0 0,9 1,7 4,3 6,4 10,7 8 5 11 6 SE 1015,3 0,3 0 0,0
11.11.2019 03:00:00 1,1 1,0 1,7 4,5 6,5 10,7 6 3 11 6 SSE 1015,3 0,3 0 0,0
11.11.2019 02:00:00 1,6 1,5 2,2 4,7 6,5 10,7 10 5 14 8 SSE 1015,8 0,3 0 0,0
11.11.2019 01:00:00 2,4 2,2 2,9 5,0 6,7 10,7 10 5 14 8 SE 1016,0 0,3 0 0,0
11.11.2019 00:00:00 3,0 2,8 3,4 5,2 6,7 10,7 7 4 14 8 SSE 1016,4 0,5 0 0,0
10.11.2019 23:00:00 3,9 3,7 4,0 5,2 6,7 10,7 5 3 11 6 ESE 1016,1 0,5 0 0,0
10.11.2019 22:00:00 4,2 4,0 4,2 5,1 6,7 10,7 3 2 7 4 SE 1016,1 0,7 0 0,0
10.11.2019 21:00:00 4,3 4,1 4,0 4,8 6,7 10,7 6 3 11 6 ESE 1016,1 4,0 0 0,0
10.11.2019 20:00:00 3,1 2,9 3,0 4,3 6,7 10,7 6 3 11 6 ENE 1016,1 1,5 0 0,0
10.11.2019 19:00:00 2,6 2,4 0,0 3,6 7,0 10,7 6 4 11 6 NE 1016,0 4,0 0 0,0
10.11.2019 18:00:00 2,9 2,3 -0,1 4,3 7,5 10,7 6 3 11 6 N 1015,8 7 0 0,0
10.11.2019 17:00:00 4,3 2,3 0,9 5,4 7,7 10,7 5 3 14 8 WSW 1015,5 30 0 0,0
10.11.2019 16:00:00 7,3 2,1 4,7 7,1 7,7 10,7 6 3 18 10 W 1015,0 30 54 0,0
10.11.2019 15:00:00 7,5 3,3 6,7 7,9 7,7 10,7 6 3 11 6 WNW 1014,7 30 6 0,0
10.11.2019 14:00:00 7,9 2,9 6,7 8,8 7,5 10,7 7 4 14 8 WSW 1014,3 30 48 0,0
10.11.2019 13:00:00 8,6 4,0 9,7 9,6 6,9 10,7 3 1 11 6 W 1014,0 25 60 0,0
10.11.2019 12:00:00 7,2 4,3 7,7 8,8 6,2 10,9 4 2 14 8 WNW 1013,9 18 60 0,0
10.11.2019 11:00:00 5,5 4,3 5,7 6,8 6,0 10,9 8 4 11 6 W 1014,0 13 60 0,0
10.11.2019 10:00:00 3,9 3,7 3,2 4,3 6,0 10,9 5 3 11 6 W 1013,6 7 60 0,0
10.11.2019 09:00:00 2,5 2,3 2,4 4,0 6,0 10,9 8 5 14 8 WSW 1013,2 0,4 6 0,0
10.11.2019 08:00:00 2,4 2,2 1,0 3,1 6,2 10,9 9 5 14 8 WSW 1012,8 0,3 0 0,0
10.11.2019 07:00:00 2,2 2,0 -0,1 3,3 6,4 10,9 8 4 14 8 SW 1012,7 5 0 0,0
10.11.2019 06:00:00 2,0 1,9 -0,5 3,4 6,7 10,9 10 5 14 8 SSW 1012,2 12 0 0,0
10.11.2019 05:00:00 2,6 2,4 0,0 4,0 6,7 10,9 8 5 11 6 SW 1011,5 12 0 0,0
10.11.2019 04:00:00 4,0 3,8 2,0 4,8 6,9 10,9 8 4 14 8 SW 1011,1 15 0 0,0
10.11.2019 03:00:00 4,7 4,6 4,0 5,3 6,9 10,9 9 5 14 8 SW 1010,7 15 0 0,0
10.11.2019 02:00:00 4,7 4,6 4,2 5,2 6,9 10,9 9 5 14 8 SW 1010,5 15 0 0,0
10.11.2019 01:00:00 4,5 4,4 4,0 4,9 7,0 10,9 10 5 14 8 SW 1010,4 20 0 0,0
10.11.2019 00:00:00 4,3 4,2 2,7 4,8 7,2 10,9 9 5 14 8 SW 1010,2 17 0 0,0
09.11.2019 23:00:00 3,5 3,3 2,0 4,6 7,4 10,9 9 5 14 8 SSW 1010,0 15 0 0,0
09.11.2019 22:00:00 3,2 3,0 0,5 4,6 7,7 10,9 10 5 14 8 SW 1009,9 12 0 0,0
09.11.2019 21:00:00 5,0 4,9 2,0 5,4 8,0 10,9 9 5 14 8 SW 1009,5 70 0 0,0
09.11.2019 20:00:00 5,9 5,7 4,2 6,5 8,0 10,9 7 4 22 12 SSW 1009,1 10 0 0,0
09.11.2019 19:00:00 6,4 6,1 5,7 7,0 8,2 10,9 13 7 29 16 W 1009,0 20 0 0,0
09.11.2019 18:00:00 6,5 6,2 6,2 7,2 8,2 10,9 13 7 25 14 W 1008,8 15 0 0,0
09.11.2019 17:00:00 6,4 6,1 6,0 7,4 8,4 10,9 15 8 29 16 W 1008,3 12 0 0,0
09.11.2019 16:00:00 6,4 6,1 6,2 7,6 8,4 10,9 14 8 32 18 W 1007,7 14 0 0,1
09.11.2019 15:00:00 6,5 6,3 6,2 7,9 8,5 10,9 15 8 29 16 W 1006,9 10 0 0,2
09.11.2019 14:00:00 6,7 6,5 6,5 8,0 8,5 10,9 13 7 25 14 W 1006,5 6 0 0,1
09.11.2019 13:00:00 7,1 6,9 7,0 8,1 8,5 10,9 18 10 29 16 WNW 1006,3 6 0 0,0
09.11.2019 12:00:00 6,8 6,6 7,0 8,1 8,5 10,9 17 9 29 16 W 1005,9 1,5 0 0,0
09.11.2019 11:00:00 7,0 6,8 7,0 8,2 8,4 10,9 14 8 25 14 WNW 1006,0 6 0 0,0
09.11.2019 10:00:00 7,1 6,9 7,2 8,2 8,4 10,9 14 7 25 14 NW 1005,7 4,0 0 0,0
09.11.2019 09:00:00 7,4 7,2 7,4 8,0 8,4 10,9 12 7 22 12 WNW 1005,7 1,5 0 0,1
09.11.2019 08:00:00 7,3 7,1 7,2 7,9 8,4 11,0 11 6 22 12 WNW 1005,4 0,9 0 0,0
09.11.2019 07:00:00 7,3 7,1 7,2 7,9 8,4 11,0 12 7 18 10 WNW 1004,9 0,9 0 0,0
09.11.2019 06:00:00 7,3 7,1 7,2 7,9 8,4 11,0 7 4 14 8 W 1005,2 1,0 0 0,1
09.11.2019 05:00:00 7,3 7,1 7,2 7,9 8,4 11,0 7 4 11 6 NNW 1004,5 1,2 0 0,0
09.11.2019 04:00:00 7,5 7,3 7,4 7,9 8,4 11,0 4 2 11 6 N 1004,8 2,8 0 0,0
09.11.2019 03:00:00 7,5 7,3 7,4 7,9 8,3 11,0 6 3 14 8 NNE 1004,9 4,2 0 0,0
09.11.2019 02:00:00 7,5 7,3 7,2 7,9 8,4 11,0 9 5 18 10 NNE 1005,1 5 0 0,0
09.11.2019 01:00:00 7,5 7,3 7,2 7,8 8,2 11,0 10 5 22 12 NE 1005,1 5 0 0,1
09.11.2019 00:00:00 7,5 7,3 7,2 7,8 8,4 11,0 12 7 22 12 NE 1005,2 4,8 0 0,4
08.11.2019 23:00:00 7,5 7,3 7,2 7,8 8,4 11,0 10 5 18 10 NNE 1005,7 4,2 0 0,5
08.11.2019 22:00:00 7,7 7,2 7,2 7,8 8,4 11,0 10 6 22 12 NNE 1006,1 7 0 0,1
08.11.2019 21:00:00 7,8 7,3 7,4 7,8 8,4 11,0 12 7 25 14 NE 1006,0 6 0 0,4
08.11.2019 20:00:00 8,4 7,0 8,0 7,8 8,4 11,0 12 7 29 16 NE 1005,9 6 0 0,0
08.11.2019 19:00:00 8,5 7,1 8,0 7,7 8,4 11,0 17 9 29 16 ENE 1006,4 11 0 0,0
08.11.2019 18:00:00 8,6 6,7 7,7 7,8 8,5 11,0 17 9 25 14 NE 1006,3 20 0 0,0
08.11.2019 17:00:00 8,9 5,9 8,1 8,1 8,6 11,0 11 6 22 12 NE 1007,0 16 0 0,0
08.11.2019 16:00:00 9,3 6,5 8,2 8,5 8,7 11,0 14 7 25 14 NE 1006,8 20 0 0,0
08.11.2019 15:00:00 9,3 6,0 8,5 9,0 8,5 11,0 12 6 22 12 E 1006,8 35 0 0,0
08.11.2019 14:00:00 9,9 5,6 9,7 9,7 8,2 11,0 14 8 22 12 E 1007,3 35 0 0,0
08.11.2019 13:00:00 10,0 5,1 10,4 9,9 7,9 11,0 16 8 22 12 E 1007,7 35 0 0,0
08.11.2019 12:00:00 9,4 5,3 9,7 9,2 7,5 11,0 14 7 22 12 E 1008,1 30 6 0,0
08.11.2019 11:00:00 8,1 6,4 8,0 8,4 7,0 11,0 5 3 11 6 E 1008,5 25 6 0,0
08.11.2019 10:00:00 6,3 6,1 6,7 6,6 6,9 11,0 3 2 11 6 S 1009,2 20 0 0,0
08.11.2019 09:00:00 4,9 4,8 5,0 5,2 6,7 11,0 6 3 11 6 SSE 1008,7 18 12 0,0
08.11.2019 08:00:00 3,2 3,0 1,7 4,1 7,0 11,0 5 3 11 6 W 1008,5 18 0 0,0
08.11.2019 07:00:00 3,2 3,0 1,0 4,1 7,2 11,0 10 5 18 10 SSW 1007,8 14 0 0,0
08.11.2019 06:00:00 3,6 3,4 0,9 4,4 7,4 11,0 12 7 14 8 SSW 1007,6 30 0 0,0
08.11.2019 05:00:00 3,7 3,5 1,7 4,7 7,7 11,0 12 7 14 8 SW 1007,5 35 0 0,0
08.11.2019 04:00:00 4,4 4,3 2,2 5,2 7,9 11,0 12 6 18 10 SSW 1007,0 35 0 0,0
08.11.2019 03:00:00 5,4 4,9 3,0 5,6 8,0 11,0 13 7 18 10 SSW 1006,9 40 0 0,0
08.11.2019 02:00:00 6,2 5,1 3,2 6,0 8,2 11,0 12 6 18 10 SSW 1006,6 35 0 0,0
08.11.2019 01:00:00 7,1 5,1 4,0 6,8 8,4 11,0 11 6 22 12 S 1005,5 35 0 0,0
08.11.2019 00:00:00 7,8 5,4 6,2 7,3 8,5 11,0 14 7 22 12 S 1005,5 35 0 0,0
07.11.2019 23:00:00 7,9 5,5 6,7 7,1 8,5 11,0 15 8 25 14 S 1005,1 35 0 0,0
07.11.2019 22:00:00 8,2 5,8 6,9 7,1 8,7 11,1 15 8 25 14 S 1005,0 40 0 0,0
07.11.2019 21:00:00 7,9 6,2 6,2 7,1 8,7 11,0 13 7 22 12 S 1004,6 35 0 0,0
07.11.2019 20:00:00 8,5 6,3 6,4 7,5 9,0 11,1 15 8 25 14 S 1004,3 35 0 0,0
07.11.2019 19:00:00 8,0 7,1 6,0 7,6 9,2 11,0 12 6 18 10 SSE 1004,1 35 0 0,0
07.11.2019 18:00:00 7,8 7,0 5,4 7,8 9,5 11,0 11 6 18 10 SSE 1003,8 30 0 0,0
07.11.2019 17:00:00 8,3 7,1 4,7 8,6 9,7 11,0 11 6 18 10 SSE 1003,7 30 0 0,0
07.11.2019 16:00:00 10,7 7,3 9,7 10,5 9,7 11,0 9 5 18 10 SSE 1003,3 30 12 0,0
07.11.2019 15:00:00 11,0 7,2 11,1 11,1 9,7 11,1 10 6 18 10 S 1003,1 30 1 0,0
07.11.2019 14:00:00 11,0 7,2 11,7 11,7 9,4 11,0 9 5 18 10 S 1002,9 25 6 0,0
07.11.2019 13:00:00 10,3 7,3 10,9 11,2 9,0 11,0 10 5 18 10 SW 1003,0 25 0 0,0
07.11.2019 12:00:00 10,5 7,5 11,0 11,4 8,7 11,0 11 6 22 12 S 1003,2 18 24 0,0
07.11.2019 11:00:00 9,5 7,8 10,2 10,1 8,2 11,0 11 6 22 12 SSW 1003,5 8 18 0,0
07.11.2019 10:00:00 7,5 7,3 7,7 8,1 8,0 11,0 8 4 18 10 S 1003,7 6 0 0,0
07.11.2019 09:00:00 7,1 6,9 7,2 7,7 8,0 11,0 8 5 18 10 SSE 1003,6 5 0 0,0
07.11.2019 08:00:00 6,8 6,6 6,7 7,3 8,0 11,0 9 5 14 8 S 1003,5 4,2 0 0,0
07.11.2019 07:00:00 6,5 6,3 6,7 7,2 8,0 11,0 7 4 14 8 S 1003,2 3,5 0 0,0
07.11.2019 06:00:00 6,1 5,9 6,2 7,0 8,0 11,0 4 2 11 6 SSW 1003,2 2,0 0 0,0
07.11.2019 05:00:00 6,0 5,8 5,9 6,9 8,0 11,0 8 4 14 8 S 1003,3 2,5 0 0,0
07.11.2019 04:00:00 5,9 5,7 5,9 6,7 8,0 11,0 6 3 11 6 S 1003,5 3,0 0 0,0
07.11.2019 03:00:00 6,0 5,8 5,7 6,7 8,0 11,0 7 4 18 10 S 1003,6 7 0 0,0
07.11.2019 02:00:00 5,9 5,7 5,5 6,6 8,2 11,0 6 3 14 8 SSW 1003,8 9 0 0,0
07.11.2019 01:00:00 5,5 5,4 5,0 6,2 8,4 11,0 8 4 18 10 SW 1003,8 12 0 0,0
07.11.2019 00:00:00 5,7 5,5 4,0 6,3 8,7 11,0 10 6 14 8 WSW 1003,8 18 0 0,0
06.11.2019 23:00:00 6,3 6,1 3,9 6,9 8,9 11,0 10 6 18 10 WSW 1003,7 22 0 0,0
06.11.2019 22:00:00 7,0 6,8 6,2 7,8 9,0 11,0 10 6 18 10 WSW 1003,6 25 0 0,0
06.11.2019 21:00:00 7,5 7,3 7,0 8,2 9,0 11,0 8 4 22 12 W 1003,1 20 0 0,0
06.11.2019 20:00:00 7,8 7,6 7,7 8,3 9,0 11,0 13 7 25 14 WSW 1002,5 8 0 0,2
06.11.2019 19:00:00 7,8 7,6 7,2 8,3 9,2 11,0 7 4 14 8 WSW 1002,3 25 0 0,0
06.11.2019 18:00:00 7,8 7,6 7,0 8,5 9,2 11,0 7 4 14 8 WSW 1002,0 25 0 0,0
06.11.2019 17:00:00 7,9 7,4 7,5 8,9 9,4 11,0 6 3 14 8 W 1001,6 20 0 0,0
06.11.2019 16:00:00 8,0 7,2 7,7 9,3 9,4 11,0 7 4 14 8 WNW 1001,2 15 0 0,3
06.11.2019 15:00:00 8,3 7,1 7,9 9,6 9,4 11,0 10 5 22 12 WNW 1001,0 12 0 0,2
06.11.2019 14:00:00 8,7 7,5 8,4 10,0 9,2 11,0 11 6 29 16 W 1000,4 11 0 0,0
06.11.2019 13:00:00 8,7 7,8 8,9 10,2 9,0 11,0 12 6 25 14 W 1000,2 11 0 0,1
06.11.2019 12:00:00 8,3 7,8 8,4 9,5 9,0 11,0 11 6 22 12 W 1000,0 10 0 0,0
06.11.2019 11:00:00 7,9 7,6 7,9 8,9 8,9 11,0 9 5 29 16 W 999,8 3,5 0 0,1
06.11.2019 10:00:00 7,9 7,7 8,0 8,7 8,7 11,0 10 5 22 12 WSW 999,4 4,0 0 0,2
06.11.2019 09:00:00 7,7 7,4 7,7 8,3 8,7 11,0 11 6 25 14 W 999,1 4,0 0 0,3
06.11.2019 08:00:00 7,5 7,0 7,4 8,1 8,7 11,0 12 6 22 12 WSW 998,6 7 0 0,2
06.11.2019 07:00:00 7,7 7,1 7,2 8,1 8,7 11,0 11 6 25 14 WSW 997,9 9 0 0,5
06.11.2019 06:00:00 7,9 7,1 7,2 8,1 8,7 11,0 14 7 22 12 WSW 997,5 20 0 0,0

tt = temperature
td = dewpoint
tt 5cm = temperature 5cm
tt -5cm = temperature -5cm
tt -20cm = temperature -20cm
tt -100cm = temperature -100cm
ff = wind speed
fx = gusts
dd = wind direction
ppp = reduced air pressure
vv = visibility
sd = sunshine duration
rr = precipitation

Next stations